This is the latest recevied weather packets stored in our database for station/object KI7MOQ. If no packets are shown the sender has not sent any weather packets the latest 10 day(s).
| Time | Temp. | Humidity | Pressure | Rain* | Wind** | Luminosity | Snow |
|---|---|---|---|---|---|---|---|
| 1777686136 | 20° C | 59% | 1016.5 hPa | 0 mm | - | 29 W/m² | - |
| 1777685833 | 20.56° C | 57% | 1016.5 hPa | 0 mm | - | 29 W/m² | - |
| 1777685528 | 20.56° C | 55% | 1016.6 hPa | 0 mm | - | 35 W/m² | - |
| 1777685225 | 21.11° C | 54% | 1016.6 hPa | 0 mm | - | 40 W/m² | - |
| 1777684923 | 21.11° C | 53% | 1016.4 hPa | 0 mm | - | 38 W/m² | - |
| 1777684619 | 21.11° C | 51% | 1016.4 hPa | 0 mm | - | 36 W/m² | - |
| 1777684316 | 21.11° C | 51% | 1016.4 hPa | 0 mm | - | 35 W/m² | - |
| 1777684013 | 21.67° C | 51% | 1016.5 hPa | 0 mm | - | 37 W/m² | - |
| 1777683709 | 21.67° C | 49% | 1016.5 hPa | 0 mm | - | 34 W/m² | - |
| 1777683407 | 21.67° C | 48% | 1016.4 hPa | 0 mm | - | 32 W/m² | - |
| 1777683105 | 21.67° C | 50% | 1016.5 hPa | 0 mm | - | 32 W/m² | - |
| 1777682800 | 22.22° C | 51% | 1016.5 hPa | 0 mm | - | 31 W/m² | - |
| 1777682497 | 21.67° C | 51% | 1016.3 hPa | 0 mm | - | 30 W/m² | - |
| 1777682195 | 22.22° C | 51% | 1016.4 hPa | 0 mm | - | 29 W/m² | - |
| 1777681892 | 22.22° C | 52% | 1016.3 hPa | 0 mm | - | 31 W/m² | - |
| 1777681588 | 22.78° C | 51% | 1016.4 hPa | 0 mm | - | 36 W/m² | - |
| 1777681286 | 22.78° C | 54% | 1016.2 hPa | 0 mm | - | 40 W/m² | - |
| 1777680983 | 22.22° C | 54% | 1016.3 hPa | 0 mm | - | 44 W/m² | - |
| 1777680680 | 22.78° C | 52% | 1016.3 hPa | 0 mm | - | 41 W/m² | - |
| 1777680378 | 22.22° C | 52% | 1016.2 hPa | 0 mm | - | 43 W/m² | - |
| 1777680075 | 22.78° C | 51% | 1016.1 hPa | 0 mm | - | 42 W/m² | - |
| 1777679771 | 22.78° C | 52% | 1016.2 hPa | 0 mm | - | 47 W/m² | - |
| 1777679467 | 22.78° C | 51% | 1016.1 hPa | 0 mm | - | 53 W/m² | - |
| 1777679162 | 22.78° C | 51% | 1016.2 hPa | 0 mm | - | 82 W/m² | - |
| 1777678861 | 22.78° C | 51% | 1016.2 hPa | 0 mm | - | 96 W/m² | - |
* Rain latest hour (hover to see other rain measurements)
** Current wind speed in m/s (hover to see current wind gust speed)